Regional Weather Roundup
Issued by NWS State College, PA

Home | Current Version | Previous Version | Text Only | Print | Product List | Glossary On
Versions: 1 2 3 4 5 6 7 8 9 10 11 12 13 14 15 16 17 18 19 20 21 22 23 24 25 26 27 28 29 30 31 32 33 34 35 36 37 38 39 40 41 42 43 44 45 46 47 48 49 50
000
ASUS41 KCTP 160110
RWRCTP

REGIONAL WEATHER ROUNDUP
NATIONAL WEATHER SERVICE STATE COLLEGE PA
800 PM EST FRI DEC 15 2017

Note: "fair" indicates few or no clouds below 12,000 feet with no
significant weather and/or obstructions to visibility.

* = STATION THAT DOES NOT REPORT PRECIPITATION /E.G. RAIN...SNOW...ETC/
    THUNDER OR FOG.

PAZ002>004-007>009-013>016-020>023-029>032-160200-
WESTERN PENNSYLVANIA

CITY           SKY/WX    TMP DP  RH WIND       PRES   REMARKS
ERIE           LGT SNOW  26  23  88 W15G23    29.85  VSB 1   WCI  14
MEADVILLE      CLOUDY    22  16  78 SW14G25   29.84R WCI   9
FRANKLIN*      FLURRIES  22  16  78 SW15G22   29.85R WCI   9
NEW CASTLE     FLURRIES  25  19  78 SW9       29.92R
BEAVER COUNTY  NOT AVBL
BUTLER*        MOCLDY    23  18  81 W12G21    29.91S WCI  12
PITTSBURGH INT FLURRIES  28  20  71 W14G25    29.93R
PITTSBURGH     CLOUDY    25  18  74 SW15G23   29.92R WCI  13
INDIANA*       MOCLDY    25  19  80 W13       29.92R WCI  13
LATROBE        LGT SNOW  27  19  74 SW13      29.93R
WASHINGTON CO* FLURRIES  27  20  75 W13       29.98R
$$

PAZ004>006-010>012-017>019-024>028-033>037-041-042-045-046-049>053-160200-
CENTRAL PENNSYLVANIA

CITY           SKY/WX    TMP DP  RH WIND       PRES   REMARKS
BRADFORD       CLOUDY    20  15  81 W8G18     29.75R WCI  10
DUBOIS         HVY SNOW  20  16  84 W14       29.82R VSB 1/4 WCI   7
CLEARFIELD     FLURRIES  22  15  75 SW9       29.84R WCI  12
JOHNSTOWN      LGT SNOW  21  16  81 W13G25    29.82R WCI   9
ALTOONA        MOCLDY    26  16  65 W18G25    29.86R WCI  13
STATE COLLEGE  MOCLDY    21  14  73 SW9       29.86R WCI  11
WILLIAMSPORT   CLOUDY    23  17  78 CALM      29.89R
SELINSGROVE    CLOUDY    22  19  89 SW3       29.92R
FT INDIANTOWN  CLOUDY    21  21 100 CALM      29.93R
CAPITAL CITY   CLOUDY    24  19  81 W6        29.94R
HARRISBURG     CLOUDY    23  20  88 CALM      29.94R
YORK           MOCLDY    12  11  95 CALM      29.93S
$$

PAZ038>040-043-044-047-048-054-055-060>062-067>071-160200-
EASTERN PENNSYLVANIA

CITY           SKY/WX    TMP DP  RH WIND       PRES   REMARKS
SCRANTON       CLOUDY    22  17  81 SW9       29.85S WCI  12
MOUNT POCONO   CLOUDY    16  14  92 W12       29.76F WCI   3
ALLENTOWN      CLOUDY    22  17  81 W6        29.91S WCI  14
QUAKERTOWN*    CLOUDY    19  18  93 CALM      29.92R
READING        CLOUDY    22  21  96 CALM      29.93R
LANCASTER      PTCLDY    22  21  96 W5        29.94R FOG
COATESVILLE    CLOUDY    23  21  93 CALM      29.93R
POTTSTOWN      CLOUDY    17  16  95 CALM      29.94R FOG
BLUE BELL      PTCLDY    21  21 100 CALM      29.95R
DOYLESTOWN     PTCLDY    20  18  92 SW3       29.91R
WILLOW GROVE   NOT AVBL
NORTH PHILA    CLOUDY    26  21  81 W6        29.95S
PHILADELPHIA   CLOUDY    26  21  81 W8        29.96R
$$



USA.gov is the U.S. government's official web portal to all federal, state and local government web resources and services.